Regional Weather Roundup
Issued by NWS Wilmington, NC

Home | Current Version | Previous Version | Text Only | Print | Product List | Glossary On
Versions: 1 2 3 4 5 6 7 8 9 10 11 12 13 14 15 16 17 18 19 20 21 22 23 24 25 26 27 28 29 30 31 32 33 34 35 36 37 38 39 40 41 42 43 44 45 46 47 48 49 50
000
ASUS42 KILM 221213
RWRILM
RWRILM
REGIONAL HOURLY WEATHER ROUNDUP
NATIONAL WEATHER SERVICE WILMINGTON NC
800 AM EDT MON JUL 22 2019

NOTE: "FAIR" INDICATES FEW OR NO CLOUDS BELOW 12,000 FEET WITH NO
SIGNIFICANT WEATHER AND/OR OBSTRUCTIONS TO VISIBILITY.

...............WFO WILMINGTON COUNTY WARNING AREA...............

......COASTAL NC AND SC COUNTIES......

CITY           SKY/WX    TMP DP  RH WIND       PRES   REMARKS
WILMINGTON     FAIR      82  75  79 SW12      30.02R
N MYRTLE BEACH FAIR      82  74  76 SW8       30.02R
MYRTLE BEACH   FAIR      82  75  79 SW8       30.03R

......INLAND NC AND SC COUNTIES.......

CITY           SKY/WX    TMP DP  RH WIND       PRES   REMARKS
LUMBERTON      NOT AVBL
ELIZABETHTOWN  FAIR      80  75  85 SW9       30.01R
WHITEVILLE     FAIR      80  75  86 S7        30.01R
FLORENCE       FAIR      83  75  77 SW8       30.02R HX  90
DARLINGTON     NOT AVBL
KINGSTREE      FAIR      79  77  94 S5        30.03R
HARTSVILLE     FAIR      77  77 100 SW3       30.01R
BENNETTSVILLE  FAIR      79  73  83 S8        30.00R
CONWAY         FAIR      79  73  83 SW6       30.02S HAZE
GEORGETOWN     FAIR      79  72  78 SW8       30.05R
MARION         FAIR      79  73  83 SW7       30.02R

....................REST OF NORTH CAROLINA......................

.........EASTERN NC.........

CITY           SKY/WX    TMP DP  RH WIND       PRES   REMARKS
CAPE HATTERAS  FAIR      82  78  88 SW8       30.00R HX  91
JACKSONVILLE   FAIR      81  76  84 SW10      30.01R
MOREHEAD CITY  FAIR      83  77  82 W12G21    30.01R HX  92
KENANSVILLE    FAIR      79  75  89 SW6       30.00R
NEW BERN       FAIR      81  75  82 SW7       30.01R
ELIZABETH CITY FAIR      84  75  74 SW13      29.95S HX  92

.........CENTRAL NC.........

CITY           SKY/WX    TMP DP  RH WIND       PRES   REMARKS
RALEIGH DURHAM FAIR      80  71  74 SW16      29.98R
ROCKY MOUNT    FAIR      81  74  79 SW7       29.97S
ROANOKE RAPIDS NOT AVBL
FAYETTEVILLE   FAIR      80  75  84 SW9       29.99R
HOFFMAN        FAIR      79  74  84 W8        29.99S

.........WESTERN NC.........

CITY           SKY/WX    TMP DP  RH WIND       PRES   REMARKS
CHARLOTTE      PTSUNNY   78  70  76 SW6       30.01R
GREENSBORO     PTSUNNY   78  70  76 SW10      29.98R
HICKORY        NOT AVBL
BOONE          NOT AVBL
ASHEVILLE      NOT AVBL

.....................REST OF SOUTH CAROLINA.....................

.........EASTERN SC.........

CITY           SKY/WX    TMP DP  RH WIND       PRES   REMARKS
CHARLESTON     FAIR      80  71  74 SW8       30.04R
BEAUFORT MCAS  FAIR      79  72  79 SW9       30.05R
HILTON HEAD    SUNNY     79  72  78 W5        30.05R

.........CENTRAL SC.........

CITY           SKY/WX    TMP DP  RH WIND       PRES   REMARKS
COLUMBIA       FAIR      79  71  76 SW6       30.01R
ORANGEBURG     FAIR      76  70  82 SW7       30.03R
SUMTER SHAW    FAIR      79  72  77 SW7       30.01R

.........WESTERN SC.........

CITY           SKY/WX    TMP DP  RH WIND       PRES   REMARKS
GREENVILLE     NOT AVBL
ROCK HILL      FAIR      77  69  76 SW8       30.02R
ANDERSON       FAIR      74  69  85 S5        30.03R
CLEMSON        NOT AVBL
GREENWOOD      FAIR      75  69  81 SW8       30.04R


...................COASTAL AND OFFSHORE REPORTS..................

................LOCAL PIERS AND NC RESERVE................


STATION/POSITION TIME  SKY/WX   TEMP    WIND        PRES    VSBY
                                AIR SEA DIR/SP/G
                 (UTC)          (F)     (DEG/KT/KT) (MB)    (MI)
JOHNY MRCER PIER 1124            81 79  230/  9/ 11 1015.7
NC RESRV MASNBRO NOT AVBL
OCEAN CREST PIER NOT AVBL
SPRINGMAID  PIER 1124            80                   N/A


................COASTAL AND OFFSHORE BUOYS................


STATION/POSITION TIME  SKY/WX   TEMP    WIND        PRES    VSBY
                                AIR SEA DIR/SP/G
                 (UTC)          (F)     (DEG/KT/KT) (MB)    (MI)
DIMNDSHOAL 41025 1150            83 84  250/ 19/ 23 1015.6R
WVE H/P(F/S)=  5/ 6 SWL H/P/D(F/S/D)=  2/200/ 8

CAPE LOOKOUT     1200            83     240/  9/ 12 1016.4R
ONSLOW BAY 41036 NOT AVBL
ONSLOW BAY 41064 1108            83 83  270/ 16/ 21 1016.0R
ONSLOW BAY 41159 1200               83                N/A
WVE H/P(F/S)=  4/ 6

MASNBO INL 41110 1140               81                N/A
WVE H/P(F/S)=  3/ 5

WILM HARBR 41108 1200               82                N/A
WVE H/P(F/S)=  4/ 5

27SE WRITB 41037 1108            81 83  270/ 16/ 21 1016.4R
FRYING PAN 41013 1150            83 84  240/ 14/ 16 1016.8R
WVE H/P(F/S)=  4/ 5 SWL H/P/D(F/S/D)=  2/200/12

SUNST NRSH 41024 1108            80 83  240/ 12/ 19 1016.6R
CAPRS NRSH 41029 1108            83 84  260/ 12/ 17 1016.7R
EDISTO     41004 1200            84     240/ 12/ 14 1017.3


..........OFFSHORE BUOYS BEYOND 100 NM OFFSHORE...........
.....IN A TRIANGLE---HAT TO BERMUDA TO BAHAMAS TO HAT.....


STATION/POSITION TIME  SKY/WX   TEMP    WIND        PRES    VSBY
                                AIR SEA DIR/SP/G
                 (UTC)          (F)     (DEG/KT/KT) (MB)    (MI)
150E HAT   41001 1200            84 83  240/ 16/ 19 1018.1
W BERMUDA  41048 1200            83 84  220/  8/ 10 1020.2
ATLANTIC S 41049 1200               85   90/ 10/ 12 1021.9
E BAHAMAS  41046 1150            83      90/ 14/ 16 1018.5F
WVE H/P(F/S)=  3/ 8 SWL H/P/D(F/S/D)=  2/ 90/ 8

NE BAHAMAS 41047 1200            84     130/ 14/ 17 1019.7
120E CANVRL41010 1150            84     100/ 10/ 12   N/A

END



USA.gov is the U.S. government's official web portal to all federal, state and local government web resources and services.